Terminal Aerodrome Forecast
Issued by NWS Sterling, VA

Current Version | Previous Version | Graphics & Text | Print | Product List | Glossary On
Versions: 1 2 3 4 5 6 7 8 9 10 11 12 13 14 15 16 17 18 19 20 21 22 23 24 25 26 27
511
FTUS41 KLWX 191741
TAFIAD
TAF
KIAD 191741Z 1918/2024 26010KT P6SM SCT060
     FM192000 29007KT P6SM VCTS BKN050CB
     FM200100 33004KT P6SM SCT050 BKN070
     FM200600 01009KT P6SM SCT050 BKN120
     FM201600 07006KT P6SM SCT020 BKN035
     FM202200 11008KT P6SM BKN035=

USA.gov is the U.S. government's official web portal to all federal, state and local government web resources and services.